Fremont, NE

2:33 AM CDT on May 25, 2018 (GMT -0500)
Fremont Municipal

Weather History for KFET - November, 2014

Change the Weather History Date:

Monday, November 24, 2014

  Actual Average Record
Temperature  
Mean Temperature 30 °F -  
Max Temperature 37 °F 44 °F 70 °F (2017)
Min Temperature 22 °F 22 °F 4 °F (1950)
Degree Days  
Heating Degree Days 36    
Moisture  
Dew Point 17 °F    
Average Humidity 58    
Maximum Humidity 71    
Minimum Humidity 42    
Precipitation  
Precipitation 0.00 in - - ()
Sea Level Pressure  
Sea Level Pressure 29.79 in    
Wind  
Wind Speed 20 mph (NW)    
Max Wind Speed 31 mph    
Max Gust Speed 41 mph    
Visibility 10 miles    
Events      
Averages and records for this station are not official NWS values.
T = Trace of Precipitation, MM = Missing Value Source: NWS Daily Summary

Daily Weather History Graph

Daily Weather History Graph

Search for Another Location

Airport or City:

Astronomy

Nov. 24, 2014 Rise Set
Actual Time 7:25 AM CST 5:00 PM CST
Civil Twilight 6:54 AM CST 5:30 PM CST
Nautical Twilight 6:20 AM CST 6:04 PM CST
Astronomical Twilight 5:47 AM CST 6:37 PM CST
Moon 9:18 AM CST (11/24) 7:23 PM CST (11/24)
Length of Visible Light 10h 35m
Length of Day
9h 34m
Waxing Crescent, 6% of the Moon is Illuminated
Nov 24
Waxing Crescent
Nov 29
First Quarter
Dec 6
Full
Dec 14
Last Quarter
Dec 21
New

Hourly Weather History & Observations

Time (CST) Temp. Windchill Dew Point Humidity Pressure Visibility Wind Dir Wind Speed Gust Speed Precip Events Conditions
12:15 AM 30.9 °F 20.2 °F 21.7 °F 69% 29.56 in 10.0 mi NW 15.0 mph - N/A   Clear
12:35 AM 30.7 °F 18.1 °F 21.7 °F 69% 29.56 in 10.0 mi NW 20.7 mph 25.3 mph N/A   Clear
12:55 AM 30.7 °F 19.2 °F 21.6 °F 69% 29.55 in 10.0 mi WNW 17.3 mph 25.3 mph N/A   Clear
1:15 AM 30.2 °F 17.4 °F 21.9 °F 71% 29.55 in 10.0 mi NW 20.7 mph 26.5 mph N/A   Clear
1:35 AM 30.7 °F 19.2 °F 21.9 °F 70% 29.55 in 10.0 mi NW 17.3 mph 26.5 mph N/A   Mostly Cloudy
1:55 AM 31.5 °F 20.5 °F 22.1 °F 68% 29.55 in 10.0 mi NW 16.1 mph 26.5 mph N/A   Overcast
2:15 AM 31.6 °F 17.9 °F 21.2 °F 65% 29.56 in 10.0 mi NW 26.5 mph 33.4 mph N/A   Overcast
2:35 AM 31.3 °F 17.1 °F 20.8 °F 65% 29.57 in 10.0 mi NW 27.6 mph 33.4 mph N/A   Overcast
2:55 AM 30.7 °F 17.2 °F 19.6 °F 63% 29.58 in 10.0 mi NW 24.2 mph 34.5 mph N/A   Overcast
3:15 AM 30.4 °F 17.3 °F 19.4 °F 64% 29.58 in 10.0 mi NW 21.9 mph 27.6 mph N/A   Overcast
3:35 AM 30.2 °F 17.8 °F 19.6 °F 65% 29.58 in 10.0 mi NW 19.6 mph 26.5 mph N/A   Overcast
3:55 AM 30.0 °F 19.1 °F 19.9 °F 66% 29.58 in 10.0 mi NW 15.0 mph 24.2 mph N/A   Overcast
4:15 AM 29.8 °F 18.0 °F 19.9 °F 67% 29.58 in 10.0 mi NW 17.3 mph 23.0 mph N/A   Overcast
4:35 AM 30.0 °F 18.7 °F 20.5 °F 68% 29.59 in 10.0 mi NW 16.1 mph - N/A   Overcast
4:55 AM 30.2 °F 19.3 °F 20.8 °F 68% 29.59 in 10.0 mi NW 15.0 mph 24.2 mph N/A   Overcast
5:15 AM 30.6 °F 19.8 °F 20.8 °F 67% 29.60 in 10.0 mi NW 15.0 mph 31.1 mph N/A   Overcast
5:35 AM 30.2 °F 15.7 °F 20.3 °F 67% 29.61 in 10.0 mi NW 27.6 mph 34.5 mph N/A   Overcast
5:55 AM 30.0 °F 16.6 °F 20.3 °F 67% 29.62 in 10.0 mi NW 23.0 mph 33.4 mph N/A   Overcast
6:35 AM 29.3 °F 15.0 °F 19.9 °F 68% 29.64 in 10.0 mi NW 25.3 mph 34.5 mph N/A   Overcast
6:55 AM 29.3 °F 16.2 °F 19.9 °F 68% 29.65 in 10.0 mi NW 20.7 mph 27.6 mph N/A   Overcast
7:15 AM 29.3 °F 15.9 °F 19.8 °F 68% 29.65 in 10.0 mi NW 21.9 mph 32.2 mph N/A   Overcast
7:35 AM 29.1 °F 15.4 °F 19.9 °F 69% 29.67 in 10.0 mi NW 23.0 mph 33.4 mph N/A   Overcast
7:55 AM 29.1 °F 17.1 °F 20.3 °F 70% 29.67 in 10.0 mi NW 17.3 mph - N/A   Overcast
8:35 AM 30.2 °F 16.2 °F 20.7 °F 68% 29.69 in 10.0 mi WNW 25.3 mph 31.1 mph N/A   Overcast
8:55 AM 30.2 °F 16.2 °F 20.3 °F 67% 29.69 in 10.0 mi NW 25.3 mph 35.7 mph N/A   Overcast
9:15 AM 30.2 °F 17.1 °F 20.7 °F 68% 29.70 in 10.0 mi NW 21.9 mph 28.8 mph N/A   Overcast
9:35 AM 30.6 °F 16.2 °F 20.8 °F 67% 29.71 in 10.0 mi WNW 27.6 mph 32.2 mph N/A   Overcast
9:55 AM 29.8 °F 15.2 °F 20.1 °F 67% 29.72 in 10.0 mi NW 27.6 mph 35.7 mph N/A   Overcast
10:15 AM 29.3 °F 14.5 °F 19.9 °F 68% 29.73 in 10.0 mi NW 27.6 mph 33.4 mph N/A   Overcast
10:35 AM 29.7 °F 14.7 °F 19.4 °F 66% 29.74 in 10.0 mi NW 28.8 mph 36.8 mph N/A   Overcast
10:55 AM 30.4 °F 16.5 °F 19.6 °F 64% 29.74 in 10.0 mi NW 25.3 mph 32.2 mph N/A   Overcast
11:15 AM 30.7 °F 16.4 °F 19.9 °F 64% 29.75 in 10.0 mi NW 27.6 mph 35.7 mph N/A   Overcast
11:35 AM 31.3 °F 16.9 °F 19.9 °F 63% 29.75 in 10.0 mi WNW 28.8 mph 36.8 mph N/A   Overcast
11:55 AM 32.0 °F 18.1 °F 18.9 °F 58% 29.75 in 10.0 mi NW 27.6 mph 33.4 mph N/A   Overcast
12:15 PM 32.4 °F 18.1 °F 19.0 °F 58% 29.75 in 10.0 mi NW 29.9 mph 35.7 mph N/A   Mostly Cloudy
12:35 PM 33.8 °F 20.3 °F 19.0 °F 55% 29.76 in 10.0 mi NW 28.8 mph 35.7 mph N/A   Scattered Clouds
12:55 PM 34.9 °F 22.5 °F 18.5 °F 51% 29.77 in 10.0 mi NW 25.3 mph 34.5 mph N/A   Scattered Clouds
1:15 PM 35.8 °F 22.5 °F 18.5 °F 50% 29.77 in 10.0 mi NW 31.1 mph 41.4 mph N/A   Clear
1:35 PM 36.5 °F 24.4 °F 17.8 °F 47% 29.79 in 10.0 mi NW 26.5 mph 38.0 mph N/A   Clear
1:55 PM 37.4 °F 26.1 °F 18.0 °F 45% 29.80 in 10.0 mi NW 24.2 mph 35.7 mph N/A   Clear
2:15 PM 37.9 °F 26.8 °F 18.1 °F 45% 29.81 in 10.0 mi NW 24.2 mph 28.8 mph N/A   Clear
2:35 PM 37.0 °F 25.6 °F 17.4 °F 45% 29.81 in 10.0 mi NW 24.2 mph 38.0 mph N/A   Clear
3:15 PM 36.7 °F 24.9 °F 16.0 °F 43% 29.84 in 10.0 mi NW 25.3 mph 32.2 mph N/A   Clear
3:35 PM 36.5 °F 25.4 °F 15.8 °F 43% 29.86 in 10.0 mi NW 21.9 mph 33.4 mph N/A   Clear
3:55 PM 36.0 °F 24.4 °F 14.9 °F 42% 29.87 in 10.0 mi NW 23.0 mph 31.1 mph N/A   Clear
4:15 PM 35.2 °F 23.5 °F 14.0 °F 42% 29.88 in 10.0 mi WNW 23.0 mph 28.8 mph N/A   Clear
4:35 PM 34.2 °F 22.6 °F 13.6 °F 43% 29.90 in 10.0 mi WNW 20.7 mph 24.2 mph N/A   Clear
4:55 PM 32.9 °F 21.6 °F 13.1 °F 44% 29.91 in 10.0 mi WNW 18.4 mph - N/A   Clear
5:35 PM 31.8 °F 21.0 °F 12.0 °F 44% 29.94 in 10.0 mi WNW 16.1 mph - N/A   Clear
5:55 PM 30.9 °F 19.4 °F 12.7 °F 47% 29.95 in 10.0 mi WNW 17.3 mph 23.0 mph N/A   Clear
6:15 PM 30.6 °F 19.0 °F 11.8 °F 46% 29.96 in 10.0 mi WNW 17.3 mph 21.9 mph N/A   Clear
6:35 PM 29.8 °F 18.4 °F 11.8 °F 47% 29.98 in 10.0 mi WNW 16.1 mph 21.9 mph N/A   Clear
6:55 PM 29.8 °F 18.9 °F 10.9 °F 45% 29.99 in 10.0 mi WNW 15.0 mph 20.7 mph N/A   Clear
7:15 PM 28.9 °F 18.2 °F 11.3 °F 48% 30.00 in 10.0 mi WNW 13.8 mph - N/A   Clear
7:35 PM 28.4 °F 17.0 °F 11.8 °F 50% 30.01 in 10.0 mi WNW 15.0 mph - N/A   Clear
7:55 PM 28.4 °F 17.5 °F 12.0 °F 50% 30.02 in 10.0 mi NW 13.8 mph - N/A   Clear
8:15 PM 28.2 °F 17.2 °F 11.3 °F 49% 30.03 in 10.0 mi NW 13.8 mph - N/A   Clear
8:35 PM 27.7 °F 16.6 °F 12.0 °F 52% 30.04 in 10.0 mi NW 13.8 mph - N/A   Clear
8:55 PM 27.3 °F 14.4 °F 11.1 °F 51% 30.05 in 10.0 mi NW 18.4 mph 23.0 mph N/A   Clear
9:15 PM 27.0 °F 16.1 °F 11.3 °F 52% 30.06 in 10.0 mi WNW 12.7 mph - N/A   Clear
9:35 PM 26.4 °F 15.0 °F 11.3 °F 53% 30.06 in 10.0 mi NW 13.8 mph - N/A   Clear
9:55 PM 26.2 °F 15.2 °F 10.9 °F 52% 30.07 in 10.0 mi NW 12.7 mph - N/A   Clear
10:15 PM 25.7 °F 14.0 °F 11.1 °F 54% 30.08 in 10.0 mi NW 13.8 mph - N/A   Clear
10:35 PM 24.8 °F 13.4 °F 10.6 °F 55% 30.08 in 10.0 mi NW 12.7 mph - N/A   Clear
10:55 PM 24.6 °F 13.2 °F 10.2 °F 54% 30.09 in 10.0 mi NW 12.7 mph - N/A   Clear
11:15 PM 24.3 °F 12.7 °F 9.9 °F 54% 30.10 in 10.0 mi NW 12.7 mph 17.3 mph N/A   Clear
11:35 PM 22.8 °F 11.5 °F 11.3 °F 61% 30.11 in 10.0 mi WNW 11.5 mph - N/A   Clear
11:55 PM 22.1 °F 12.8 °F 10.9 °F 62% 30.11 in 10.0 mi WNW 8.1 mph - N/A   Clear